******************************************************************************* JPL/HORIZONS 469219 Kamo`oalewa (2016 HO3) 2025-Dec-12 17:53:54 Rec #: 469219 (+COV) Soln.date: 2025-Feb-20_05:52:49 # obs: 330 (2004-2025) IAU76/J2000 helio. ecliptic osc. elements (au, days, deg., period=Julian yrs): EPOCH= 2457854.5 ! 2017-Apr-11.00 (TDB) Residual RMS= .081651 EC= .1040534310625292 QR= .8968644455386475 TP= 2458029.6369096744 OM= 66.43991583004482 W= 307.0951007739783 IN= 7.773894173631178 A= 1.00102447694204 MA= 187.6486415815915 ADIST= 1.105184508345433 PER= 1.00156 N= .984095007 ANGMOM= .017117482 DAN= .93171 DDN= 1.05649 L= 13.7898314 B= -6.1937829 MOID= .0345833 TP= 2017-Oct-03.1369096744 Asteroid physical parameters (km, seconds, rotational period in hours): GM= n.a. RAD= n.a. ROTPER= .467 H= 24.31 G= .150 B-V= n.a. ALBEDO= n.a. STYP= n.a. Asteroid non-gravitational force model (AMRAT= m^2/kg;A1,A2,A3=au/d^2;R0=au): AMRAT= 0. A1= 0. A2= -1.345452710666E-13 A3= 0. Non-standard or simulated/proxy model: ALN= 1. NK= 0. NM= 2. NN= 5.093 R0= 1. ASTEROID comments: 1: soln ref.= JPL#35, OCC=0 2: source=ORB; Nongravitational accels. using nonstandard g(r) = (1 au/ r)^2 ******************************************************************************* ******************************************************************************* Ephemeris / WWW_USER Fri Dec 12 17:53:54 2025 Pasadena, USA / Horizons ******************************************************************************* Target body name: 469219 Kamo`oalewa (2016 HO3) {source: JPL#35} Center body name: Earth (399) {source: DE441} Center-site name: BODY CENTER ******************************************************************************* Start time : A.D. 2024-Mar-31 00:00:00.0000 TDB Stop time : A.D. 2100-Jan-01 00:00:00.0000 TDB Step-size : 100 calendar years ******************************************************************************* Center geodetic : 0.0, 0.0, 0.0 {E-lon(deg),Lat(deg),Alt(km)} Center cylindric: 0.0, 0.0, 0.0 {E-lon(deg),Dxy(km),Dz(km)} Center radii : 6378.137, 6378.137, 6356.752 km {Equator_a, b, pole_c} Keplerian GM : 3.9860043550702260E+05 km^3/s^2 Small perturbers: Yes {source: SB441-N16} Output units : KM-S, deg, Julian Day Number (Tp) Calendar mode : Mixed Julian/Gregorian Output type : GEOMETRIC osculating elements Output format : 10 EOP file : eop.251212.p260310 EOP coverage : DATA-BASED 1962-JAN-20 TO 2025-DEC-12. PREDICTS-> 2026-MAR-09 Reference frame : Ecliptic of J2000.0 ******************************************************************************* Initial IAU76/J2000 heliocentric ecliptic osculating elements (au, days, deg.): EPOCH= 2457854.5 ! 2017-Apr-11.00 (TDB) Residual RMS= .081651 EC= .1040534310625292 QR= .8968644455386475 TP= 2458029.6369096744 OM= 66.43991583004482 W= 307.0951007739783 IN= 7.773894173631178 Equivalent ICRF heliocentric cartesian coordinates (au, au/d): X=-1.032503226069064E+00 Y=-3.888111477885582E-01 Z=-5.014632284375926E-02 VX= 5.337959409310668E-03 VY=-1.270412855733100E-02 VZ=-7.097121526241582E-03 Asteroid physical parameters (km, seconds, rotational period in hours): GM= n.a. RAD= n.a. ROTPER= .467 H= 24.31 G= .150 B-V= n.a. ALBEDO= n.a. STYP= n.a. Asteroid non-gravitational force model (AMRAT= m^2/kg;A1,A2,A3=au/d^2;R0=au): AMRAT= 0. A1= 0. A2= -1.345452710666E-13 A3= 0. Non-standard or simulated/proxy model: ALN= 1. NK= 0. NM= 2. NN= 5.093 R0= 1. ******************************************************************************* JDTDB EC QR IN OM W Tp N MA TA A AD PR ******************************************************************************* $$SOE 2460400.500000000 = A.D. 2024-Mar-31 00:00:00.0000 TDB EC= 9.639668021799081E+02 QR= 2.542447721599734E+07 IN= 1.075411392884860E+02 OM= 3.159579465278276E+02 W = 1.200683646260070E+02 Tp= 2460389.251867522951 N = 8.431996980403181E-03 MA= 8.194540528806099E+03 TA= 8.456630483088283E+00 A =-2.640223646177924E+04 AD= 9.999999999999998E+99 PR= 9.999999999999998E+99 $$EOE ******************************************************************************* TIME Barycentric Dynamical Time ("TDB" or T_eph) output was requested. This continuous coordinate time is equivalent to the relativistic proper time of a clock at rest in a reference frame co-moving with the solar system barycenter but outside the system's gravity well. It is the independent variable in the solar system relativistic equations of motion. TDB runs at a uniform rate of one SI second per second and is independent of irregularities in Earth's rotation. CALENDAR SYSTEM Mixed calendar mode was active such that calendar dates after AD 1582-Oct-15 (if any) are in the modern Gregorian system. Dates prior to 1582-Oct-5 (if any) are in the Julian calendar system, which is automatically extended for dates prior to its adoption on 45-Jan-1 BC. The Julian calendar is useful for matching historical dates. The Gregorian calendar more accurately corresponds to the Earth's orbital motion and seasons. A "Gregorian-only" calendar mode is available if such physical events are the primary interest. REFERENCE FRAME AND COORDINATES Ecliptic at the standard reference epoch Reference epoch: J2000.0 X-Y plane: adopted Earth orbital plane at the reference epoch Note: IAU76 obliquity of 84381.448 arcseconds wrt ICRF X-Y plane X-axis : ICRF Z-axis : perpendicular to the X-Y plane in the directional (+ or -) sense of Earth's north pole at the reference epoch. Symbol meaning: JDTDB Julian Day Number, Barycentric Dynamical Time EC Eccentricity, e QR Periapsis distance, q (km) IN Inclination w.r.t X-Y plane, i (degrees) OM Longitude of Ascending Node, OMEGA, (degrees) W Argument of Perifocus, w (degrees) Tp Time of periapsis (Julian Day Number) N Mean motion, n (degrees/sec) MA Mean anomaly, M (degrees) TA True anomaly, nu (degrees) A Semi-major axis, a (km) AD Apoapsis distance (km) PR Sidereal orbit period (sec) ABERRATIONS AND CORRECTIONS Geometric osculating elements have NO corrections or aberrations applied. Computations by ... Solar System Dynamics Group, Horizons On-Line Ephemeris System 4800 Oak Grove Drive, Jet Propulsion Laboratory Pasadena, CA 91109 USA General site: https://ssd.jpl.nasa.gov/ Mailing list: https://ssd.jpl.nasa.gov/email_list.html System news : https://ssd.jpl.nasa.gov/horizons/news.html User Guide : https://ssd.jpl.nasa.gov/horizons/manual.html Connect : browser https://ssd.jpl.nasa.gov/horizons/app.html#/x API https://ssd-api.jpl.nasa.gov/doc/horizons.html command-line telnet ssd.jpl.nasa.gov 6775 e-mail/batch https://ssd.jpl.nasa.gov/ftp/ssd/horizons_batch.txt scripts https://ssd.jpl.nasa.gov/ftp/ssd/SCRIPTS Author : Jon.D.Giorgini@jpl.nasa.gov ******************************************************************************* !$$SOF COMMAND = '469219' START_TIME = '2024-Mar-31' STEP_SIZE = '100 years' STOP_TIME = '2100-Jan-01' TABLE_TYPE = 'ELEMENTS'